| time (UTC) | temp C | wind direction | speed KPH | gust KPH | rain 1hr cm | rain 24hr cm | rain mn cm | humidity % | barometer mb |
| 20260504150727 | 21 | 138 | 3.2 | 3.2 | 0.00 | 0.00 | 0.00 | 90 | 1015.0 |
| 20260504140721 | 18 | 124 | 3.2 | 1.6 | 0.00 | 0.00 | 0.00 | 95 | 1015.0 |
| 20260504130715 | 15 | 107 | 1.6 | 1.6 | 0.00 | 0.00 | 0.00 | 95 | 1015.0 |
| 20260504110704 | 13 | 301 | 0.0 | 0.0 | 0.00 | 0.00 | 0.00 | 91 | 1015.0 |
| 20260504081648 | 12 | 290 | 0.0 | 0.0 | 0.00 | 0.00 | 0.00 | 91 | 1015.0 |
| 20260504080647 | 14 | 290 | 0.0 | 0.0 | 0.00 | 0.00 | 0.00 | 91 | 1014.0 |
| 20260504050629 | 11 | 285 | 1.6 | 1.6 | 0.00 | 0.00 | 0.00 | 90 | 1016.0 |
| 20260504045628 | 12 | 285 | 1.6 | 1.6 | 0.03 | 0.00 | 0.00 | 90 | 1016.0 |
| 20260504044627 | 12 | 285 | 1.6 | 1.6 | 0.05 | 0.00 | 0.00 | 90 | 1016.0 |
| 20260504043626 | 12 | 299 | 1.6 | 1.6 | 0.03 | 0.00 | 0.00 | 90 | 1016.0 |
| 20260504042625 | 13 | 299 | 3.2 | 1.6 | 0.00 | 0.00 | 0.00 | 90 | 1016.0 |
| 20260504041624 | 12 | 299 | 1.6 | 1.6 | 0.00 | 0.00 | 0.00 | 90 | 1016.0 |
| 20260504040623 | 13 | 299 | 3.2 | 1.6 | 0.00 | 0.00 | 0.00 | 90 | 1016.0 |
| 20260504035622 | 12 | 299 | 1.6 | 1.6 | 0.00 | 0.00 | 0.00 | 93 | 1016.0 |
| 20260504034621 | 14 | 299 | 1.6 | 1.6 | 0.00 | 0.00 | 0.00 | 93 | 1016.0 |
| 20260504033620 | 16 | 299 | 3.2 | 1.6 | 0.00 | 0.00 | 0.00 | 93 | 1016.0 |
| 20260504032619 | 11 | 299 | 3.2 | 3.2 | 0.00 | 0.00 | 0.00 | 89 | 1016.0 |
| 20260504031618 | 11 | 299 | 3.2 | 3.2 | 0.00 | 0.00 | 0.00 | 89 | 1016.0 |
| 20260504030617 | 11 | 299 | 3.2 | 3.2 | 0.00 | 0.00 | 0.00 | 89 | 1016.0 |
| 20260504025616 | 12 | 299 | 3.2 | 3.2 | 0.00 | 0.00 | 0.00 | 89 | 1016.0 |
| 20260504024615 | 12 | 299 | 3.2 | 3.2 | 0.00 | 0.00 | 0.00 | 89 | 1016.0 |
| 20260504023614 | 12 | 299 | 3.2 | 3.2 | 0.00 | 0.00 | 0.00 | 89 | 1016.0 |
| 20260504022613 | 13 | 306 | 3.2 | 3.2 | 0.00 | 0.00 | 0.00 | 89 | 1015.0 |
| 20260504021612 | 13 | 306 | 3.2 | 3.2 | 0.00 | 0.00 | 0.00 | 89 | 1015.0 |
| 20260504020611 | 13 | 306 | 3.2 | 3.2 | 0.00 | 0.00 | 0.00 | 89 | 1015.0 |
| 20260504015611 | 12 | 306 | 1.6 | 1.6 | 0.00 | 0.00 | 0.00 | 92 | 1015.0 |
| 20260504014610 | 14 | 306 | 1.6 | 1.6 | 0.00 | 0.00 | 0.00 | 92 | 1015.0 |
| 20260504013609 | 16 | 306 | 3.2 | 3.2 | 0.00 | 0.00 | 0.00 | 92 | 1015.0 |
| 20260504012608 | 12 | 283 | 4.8 | 4.8 | 0.00 | 0.00 | 0.00 | 89 | 1014.0 |
| 20260504011607 | 12 | 283 | 4.8 | 4.8 | 0.00 | 0.00 | 0.00 | 89 | 1014.0 |
| 20260504010606 | 12 | 283 | 4.8 | 4.8 | 0.00 | 0.00 | 0.00 | 89 | 1014.0 |
| 20260504005605 | 13 | 283 | 4.8 | 4.8 | 0.00 | 0.00 | 0.00 | 89 | 1014.0 |
| 20260504004604 | 13 | 283 | 4.8 | 4.8 | 0.00 | 0.00 | 0.00 | 89 | 1014.0 |
| 20260504003603 | 13 | 283 | 4.8 | 4.8 | 0.00 | 0.00 | 0.00 | 89 | 1014.0 |
| 20260504002602 | 14 | 267 | 4.8 | 4.8 | 0.00 | 0.00 | 0.00 | 89 | 1013.0 |
| 20260504001601 | 14 | 267 | 4.8 | 4.8 | 0.00 | 0.00 | 0.00 | 89 | 1012.0 |
| 20260504000600 | 13 | 280 | 1.6 | 4.8 | 0.00 | 0.00 | 0.00 | 89 | 1012.0 |
| 20260503235559 | 15 | 280 | 3.2 | 4.8 | 0.00 | 0.00 | 0.00 | 89 | 1012.0 |
| 20260503234558 | 13 | 280 | 1.6 | 4.8 | 0.00 | 0.00 | 0.00 | 89 | 1012.0 |
| 20260503233557 | 15 | 280 | 3.2 | 4.8 | 0.00 | 0.00 | 0.00 | 89 | 1012.0 |
| 20260503232556 | 15 | 300 | 1.6 | 8.0 | 0.00 | 0.00 | 0.00 | 83 | 1011.0 |
| 20260503231555 | 16 | 300 | 1.6 | 8.0 | 0.00 | 0.00 | 0.00 | 83 | 1011.0 |
| 20260503230554 | 18 | 300 | 3.2 | 8.0 | 0.00 | 0.00 | 0.00 | 83 | 1011.0 |
| 20260503225553 | 13 | 300 | 3.2 | 8.0 | 0.00 | 0.00 | 0.00 | 82 | 1011.0 |
| 20260503224552 | 13 | 300 | 3.2 | 8.0 | 0.00 | 0.00 | 0.00 | 82 | 1011.0 |
| 20260503223551 | 13 | 300 | 3.2 | 8.0 | 0.00 | 0.00 | 0.00 | 82 | 1011.0 |
| 20260503222550 | 15 | 307 | 4.8 | 8.0 | 0.00 | 0.00 | 0.00 | 82 | 1011.0 |
| 20260503221549 | 15 | 307 | 4.8 | 8.0 | 0.00 | 0.00 | 0.00 | 82 | 1011.0 |
| 20260503220549 | 15 | 307 | 4.8 | 8.0 | 0.00 | 0.00 | 0.00 | 82 | 1011.0 |
| 20260503215548 | 16 | 307 | 4.8 | 8.0 | 0.00 | 0.00 | 0.00 | 82 | 1011.0 |
| 20260503214547 | 16 | 307 | 4.8 | 8.0 | 0.00 | 0.00 | 0.00 | 82 | 1011.0 |
| 20260503213546 | 16 | 307 | 4.8 | 8.0 | 0.00 | 0.00 | 0.00 | 82 | 1011.0 |
| 20260503212545 | 16 | 309 | 4.8 | 8.0 | 0.00 | 0.00 | 0.00 | 75 | 1010.0 |
| 20260503211544 | 18 | 309 | 4.8 | 8.0 | 0.00 | 0.00 | 0.00 | 75 | 1010.0 |
| 20260503210543 | 20 | 309 | 4.8 | 8.0 | 0.00 | 0.00 | 0.00 | 75 | 1010.0 |
| 20260503205542 | 16 | 309 | 4.8 | 8.0 | 0.00 | 0.00 | 0.00 | 71 | 1010.0 |
| 20260503204541 | 16 | 309 | 4.8 | 8.0 | 0.00 | 0.00 | 0.00 | 71 | 1010.0 |
| 20260503203540 | 16 | 309 | 4.8 | 8.0 | 0.00 | 0.00 | 0.00 | 71 | 1010.0 |
| 20260503202539 | 17 | 303 | 4.8 | 6.4 | 0.00 | 0.00 | 0.00 | 71 | 1010.0 |
| 20260503201538 | 17 | 303 | 4.8 | 6.4 | 0.00 | 0.00 | 0.00 | 71 | 1010.0 |
| 20260503200537 | 17 | 303 | 4.8 | 6.4 | 0.00 | 0.00 | 0.00 | 71 | 1010.0 |
| 20260503195536 | 18 | 303 | 4.8 | 6.4 | 0.00 | 0.00 | 0.00 | 71 | 1010.0 |
| 20260503194535 | 18 | 303 | 4.8 | 6.4 | 0.00 | 0.00 | 0.00 | 71 | 1010.0 |
| 20260503193534 | 18 | 303 | 4.8 | 6.4 | 0.00 | 0.00 | 0.00 | 71 | 1010.0 |
| 20260503192533 | 20 | 290 | 3.2 | 4.8 | 0.00 | 0.00 | 0.00 | 71 | 1010.0 |
| 20260503191532 | 20 | 290 | 3.2 | 4.8 | 0.00 | 0.00 | 0.00 | 71 | 1010.0 |
| 20260503190531 | 20 | 290 | 3.2 | 4.8 | 0.00 | 0.00 | 0.00 | 71 | 1010.0 |
| 20260503185530 | 19 | 290 | 1.6 | 4.8 | 0.00 | 0.00 | 0.00 | 71 | 1010.0 |
| 20260503184529 | 21 | 290 | 3.2 | 4.8 | 0.00 | 0.00 | 0.00 | 71 | 1011.0 |
| 20260503183529 | 20 | 272 | 1.6 | 1.6 | 0.00 | 0.00 | 0.00 | 71 | 1011.0 |
| 20260503182528 | 22 | 272 | 1.6 | 3.2 | 0.00 | 0.00 | 0.00 | 71 | 1012.0 |
| 20260503181527 | 20 | 272 | 1.6 | 1.6 | 0.00 | 0.00 | 0.00 | 71 | 1012.0 |
| 20260503180526 | 22 | 272 | 1.6 | 3.2 | 0.00 | 0.00 | 0.00 | 71 | 1012.0 |
| 20260503175525 | 21 | 272 | 1.6 | 3.2 | 0.00 | 0.00 | 0.00 | 74 | 1012.0 |
| 20260503174524 | 22 | 272 | 0.0 | 1.6 | 0.00 | 0.00 | 0.00 | 74 | 1012.0 |
| 20260503173523 | 24 | 272 | 0.0 | 1.6 | 0.00 | 0.00 | 0.00 | 74 | 1012.0 |
| 20260503172522 | 20 | 108 | 0.0 | 1.6 | 0.00 | 0.00 | 0.00 | 77 | 1013.0 |
| 20260503171521 | 20 | 108 | 0.0 | 1.6 | 0.00 | 0.00 | 0.00 | 77 | 1013.0 |
| 20260503170520 | 20 | 108 | 0.0 | 1.6 | 0.00 | 0.00 | 0.00 | 77 | 1013.0 |